�������l�o���
Date,Time,MP-1(��Sv/h),MP-2(��Sv/h),MP-3(��Sv/h),MP-4(��Sv/h),MP-5(��Sv/h),MP-6(��Sv/h),MP-7(��Sv/h),MP-8(��Sv/h),����,����(m/s),���J
2021/10/04,00:00,0.586,0.877,0.558,1.069,0.754,0.357,0.621,0.581,��,9.0,��
2021/10/04,00:10,0.586,0.878,0.559,1.066,0.754,0.358,0.619,0.581,��,9.7,��
2021/10/04,00:20,0.586,0.878,0.560,1.064,0.752,0.359,0.620,0.582,��,8.9,��
2021/10/04,00:30,0.586,0.877,0.560,1.064,0.755,0.359,0.620,0.582,��,9.6,��
2021/10/04,00:40,0.586,0.877,0.559,1.063,0.754,0.357,0.621,0.582,��쐼,7.3,��
2021/10/04,00:50,0.586,0.878,0.559,1.064,0.752,0.357,0.621,0.581,��,8.2,��
2021/10/04,01:00,0.586,0.877,0.559,1.066,0.754,0.359,0.621,0.583,��,7.9,��
2021/10/04,01:10,0.587,0.877,0.560,1.065,0.753,0.360,0.621,0.582,��,8.3,��
2021/10/04,01:20,0.587,0.880,0.559,1.066,0.752,0.358,0.622,0.581,��,8.5,��
2021/10/04,01:30,0.587,0.878,0.559,1.066,0.752,0.357,0.623,0.582,��,8.9,��
2021/10/04,01:40,0.585,0.878,0.559,1.067,0.756,0.358,0.621,0.582,��,7.4,��
2021/10/04,01:50,0.587,0.878,0.559,1.064,0.754,0.358,0.621,0.581,��,6.6,��
2021/10/04,02:00,0.587,0.877,0.559,1.064,0.753,0.358,0.622,0.582,��,8.1,��
2021/10/04,02:10,0.586,0.876,0.559,1.065,0.754,0.359,0.622,0.581,��,8.1,��
2021/10/04,02:20,0.586,0.881,0.559,1.066,0.752,0.359,0.622,0.581,��쐼,6.6,��
2021/10/04,02:30,0.587,0.878,0.559,1.067,0.754,0.359,0.621,0.581,��쐼,7.3,��
2021/10/04,02:40,0.587,0.877,0.560,1.067,0.756,0.358,0.620,0.581,��,6.9,��
2021/10/04,02:50,0.586,0.877,0.559,1.067,0.753,0.358,0.623,0.583,��,6.4,��
2021/10/04,03:00,0.589,0.879,0.560,1.065,0.754,0.357,0.623,0.581,��쐼,7.5,��
2021/10/04,03:10,0.587,0.877,0.559,1.067,0.753,0.358,0.621,0.582,��,6.7,��
2021/10/04,03:20,0.586,0.879,0.559,1.067,0.754,0.359,0.621,0.582,��,6.2,��
2021/10/04,03:30,0.587,0.878,0.560,1.065,0.753,0.358,0.622,0.581,��쐼,6.2,��
2021/10/04,03:40,0.586,0.880,0.558,1.064,0.754,0.360,0.620,0.581,��쐼,5.8,��
2021/10/04,03:50,0.586,0.877,0.559,1.066,0.753,0.358,0.621,0.581,��쐼,5.9,��
2021/10/04,04:00,0.588,0.879,0.559,1.063,0.755,0.359,0.620,0.582,��쐼,4.3,��
2021/10/04,04:10,0.587,0.878,0.559,1.065,0.754,0.358,0.622,0.582,��쐼,6.3,��
2021/10/04,04:20,0.587,0.882,0.560,1.064,0.756,0.359,0.621,0.582,��쐼,5.2,��
2021/10/04,04:30,0.587,0.877,0.559,1.065,0.754,0.359,0.621,0.581,��쐼,4.5,��
2021/10/04,04:40,0.588,0.880,0.559,1.066,0.753,0.358,0.621,0.580,��쐼,4.3,��
2021/10/04,04:50,0.587,0.879,0.561,1.064,0.753,0.357,0.621,0.582,��쐼,4.1,��
2021/10/04,05:00,0.588,0.880,0.558,1.064,0.755,0.360,0.621,0.582,��쐼,6.4,��
2021/10/04,05:10,0.588,0.878,0.560,1.067,0.753,0.357,0.622,0.582,��쐼,6.6,��
2021/10/04,05:20,0.587,0.878,0.558,1.064,0.754,0.359,0.620,0.581,��쐼,6.8,��
2021/10/04,05:30,0.587,0.877,0.560,1.065,0.754,0.360,0.622,0.581,��쐼,8.4,��
2021/10/04,05:40,0.587,0.877,0.558,1.063,0.753,0.359,0.623,0.582,��,5.6,��
2021/10/04,05:50,0.587,0.878,0.559,1.065,0.756,0.359,0.622,0.583,��쐼,6.2,��
2021/10/04,06:00,0.587,0.876,0.557,1.063,0.753,0.359,0.621,0.582,��쐼,6.4,��
2021/10/04,06:10,0.587,0.878,0.560,1.068,0.755,0.359,0.619,0.583,��쐼,6.7,��
2021/10/04,06:20,0.585,0.878,0.560,1.066,0.755,0.359,0.619,0.583,��쐼,6.0,��
2021/10/04,06:30,0.588,0.876,0.560,1.065,0.755,0.358,0.621,0.581,��쐼,6.4,��
2021/10/04,06:40,0.588,0.877,0.560,1.066,0.754,0.359,0.620,0.581,��쐼,6.0,��
2021/10/04,06:50,0.589,0.877,0.561,1.065,0.755,0.357,0.622,0.582,��쐼,6.0,��
2021/10/04,07:00,0.588,0.878,0.560,1.064,0.754,0.358,0.623,0.582,�쐼,4.8,��
2021/10/04,07:10,0.590,0.879,0.561,1.066,0.754,0.358,0.623,0.583,�쐼,4.4,��
2021/10/04,07:20,0.586,0.877,0.561,1.066,0.754,0.359,0.621,0.583,��쐼,3.1,��
2021/10/04,07:30,0.587,0.877,0.561,1.066,0.753,0.358,0.622,0.582,��쐼,4.3,��
2021/10/04,07:40,0.589,0.876,0.558,1.065,0.755,0.358,0.620,0.582,�쐼,4.4,��
2021/10/04,07:50,0.587,0.878,0.558,1.066,0.754,0.358,0.623,0.583,��쐼,4.5,��
2021/10/04,08:00,0.587,0.879,0.560,1.065,0.756,0.358,0.622,0.583,�쐼,4.5,��
2021/10/04,08:10,0.585,0.878,0.559,1.068,0.752,0.357,0.621,0.583,�쐼,3.1,��
2021/10/04,08:20,0.587,0.877,0.560,1.067,0.754,0.358,0.619,0.582,��쐼,3.3,��
2021/10/04,08:30,0.585,0.874,0.560,1.067,0.751,0.358,0.620,0.584,�쐼,3.6,��
2021/10/04,08:40,0.586,0.874,0.561,1.069,0.752,0.358,0.621,0.583,��쐼,3.6,��
2021/10/04,08:50,0.586,0.877,0.559,1.066,0.754,0.359,0.619,0.582,��쐼,2.6,��
2021/10/04,09:00,0.588,0.875,0.558,1.066,0.754,0.358,0.622,0.582,��,2.6,��
2021/10/04,09:10,0.589,0.874,0.558,1.067,0.754,0.358,0.621,0.581,��쐼,2.6,��
2021/10/04,09:20,0.587,0.877,0.559,1.068,0.753,0.358,0.620,0.579,��,2.0,��
2021/10/04,09:30,0.589,0.876,0.558,1.068,0.752,0.357,0.621,0.580,��,2.3,��
2021/10/04,09:40,0.587,0.879,0.559,1.068,0.755,0.357,0.621,0.581,��쓌,2.2,��
2021/10/04,09:50,0.587,0.879,0.559,1.069,0.754,0.356,0.620,0.580,��쓌,3.3,��
2021/10/04,10:00,0.588,0.878,0.560,1.070,0.754,0.357,0.621,0.579,��쓌,3.6,��
2021/10/04,10:10,0.588,0.878,0.559,1.067,0.754,0.358,0.622,0.581,��쓌,5.0,��
2021/10/04,10:20,0.589,0.877,0.559,1.068,0.756,0.358,0.622,0.582,��쓌,5.5,��
2021/10/04,10:30,0.588,0.876,0.559,1.071,0.756,0.357,0.621,0.580,��쓌,5.2,��
2021/10/04,10:40,0.589,0.878,0.561,1.069,0.756,0.357,0.621,0.582,��쓌,6.2,��
2021/10/04,10:50,0.587,0.876,0.559,1.066,0.756,0.357,0.621,0.582,��쓌,4.4,��
2021/10/04,11:00,0.588,0.876,0.561,1.070,0.755,0.359,0.622,0.581,��쓌,5.2,��
2021/10/04,11:10,0.590,0.877,0.561,1.069,0.755,0.358,0.622,0.580,��쓌,5.2,��
2021/10/04,11:20,0.590,0.879,0.561,1.069,0.758,0.358,0.621,0.581,��쓌,6.0,��
2021/10/04,11:30,0.589,0.879,0.561,1.069,0.757,0.357,0.621,0.580,��쓌,5.9,��
2021/10/04,11:40,0.589,0.880,0.561,1.069,0.758,0.357,0.621,0.583,��쓌,5.8,��
2021/10/04,11:50,0.588,0.883,0.561,1.070,0.760,0.360,0.621,0.581,��쓌,6.0,��
2021/10/04,12:00,0.591,0.880,0.561,1.071,0.757,0.358,0.620,0.583,��쓌,7.0,��
2021/10/04,12:10,0.589,0.882,0.560,1.070,0.759,0.359,0.623,0.581,��쓌,7.6,��
2021/10/04,12:20,0.589,0.882,0.562,1.070,0.761,0.358,0.622,0.581,��쓌,7.7,��
2021/10/04,12:30,0.590,0.880,0.561,1.072,0.759,0.359,0.622,0.582,��쓌,7.7,��
2021/10/04,12:40,0.588,0.882,0.561,1.071,0.760,0.361,0.620,0.580,��쓌,8.3,��
2021/10/04,12:50,0.590,0.882,0.563,1.069,0.759,0.359,0.622,0.581,��쓌,8.1,��
2021/10/04,13:00,0.589,0.880,0.561,1.071,0.759,0.360,0.621,0.581,��,7.2,��
2021/10/04,13:10,0.591,0.882,0.562,1.072,0.760,0.361,0.622,0.582,��쓌,7.3,��
2021/10/04,13:20,0.592,0.883,0.562,1.070,0.759,0.360,0.623,0.582,��,7.5,��
2021/10/04,13:30,0.590,0.881,0.561,1.072,0.759,0.360,0.622,0.581,��쓌,7.9,��
2021/10/04,13:40,0.589,0.879,0.563,1.070,0.760,0.360,0.622,0.582,��쓌,7.1,��
2021/10/04,13:50,0.592,0.881,0.562,1.071,0.759,0.360,0.624,0.582,��,6.5,��
2021/10/04,14:00,0.590,0.881,0.564,1.072,0.759,0.360,0.623,0.582,��,6.5,��
2021/10/04,14:10,0.592,0.880,0.563,1.071,0.760,0.360,0.622,0.582,��,6.1,��
2021/10/04,14:20,0.593,0.881,0.563,1.069,0.759,0.360,0.622,0.581,��,5.9,��
2021/10/04,14:30,0.591,0.881,0.562,1.070,0.759,0.360,0.623,0.582,��,4.9,��
2021/10/04,14:40,0.590,0.882,0.564,1.070,0.760,0.359,0.623,0.582,��,4.0,��
2021/10/04,14:50,0.591,0.882,0.564,1.072,0.760,0.360,0.624,0.582,��,4.2,��
2021/10/04,15:00,0.590,0.882,0.562,1.072,0.761,0.360,0.623,0.581,��,4.7,��
2021/10/04,15:10,0.592,0.882,0.564,1.072,0.761,0.360,0.623,0.581,��,4.6,��
2021/10/04,15:20,0.590,0.884,0.564,1.071,0.761,0.360,0.624,0.581,��,4.8,��
2021/10/04,15:30,0.590,0.884,0.562,1.071,0.761,0.360,0.623,0.581,��,4.0,��
2021/10/04,15:40,0.592,0.882,0.561,1.073,0.760,0.361,0.622,0.581,��,4.4,��
2021/10/04,15:50,0.592,0.883,0.562,1.073,0.762,0.361,0.622,0.582,��,4.5,��
2021/10/04,16:00,0.593,0.884,0.563,1.076,0.759,0.361,0.622,0.582,��,5.6,��
2021/10/04,16:10,0.592,0.881,0.563,1.071,0.762,0.361,0.621,0.582,��,4.5,��
2021/10/04,16:20,0.591,0.886,0.563,1.070,0.761,0.360,0.621,0.581,��,5.1,��
2021/10/04,16:30,0.590,0.884,0.563,1.073,0.759,0.360,0.621,0.580,��,4.4,��
2021/10/04,16:40,0.589,0.884,0.564,1.073,0.760,0.360,0.622,0.581,��,3.7,��
2021/10/04,16:50,0.591,0.884,0.561,1.071,0.760,0.360,0.622,0.584,��,4.0,��
2021/10/04,17:00,0.591,0.884,0.563,1.071,0.760,0.360,0.623,0.583,��,5.0,��
2021/10/04,17:10,0.589,0.884,0.565,1.072,0.762,0.359,0.624,0.584,��,5.9,��
2021/10/04,17:20,0.588,0.885,0.564,1.073,0.759,0.360,0.623,0.584,��쐼,5.2,��
2021/10/04,17:30,0.593,0.884,0.563,1.071,0.759,0.359,0.624,0.585,�쐼,3.8,��
2021/10/04,17:40,0.593,0.887,0.562,1.071,0.761,0.362,0.625,0.583,�쐼,2.5,��
2021/10/04,17:50,0.592,0.888,0.564,1.074,0.762,0.360,0.625,0.584,�쐼,1.7,��
2021/10/04,18:00,0.592,0.887,0.564,1.072,0.764,0.360,0.625,0.585,���쐼,2.0,��
2021/10/04,18:10,0.592,0.888,0.566,1.074,0.764,0.361,0.623,0.584,��,1.1,��
2021/10/04,18:20,0.593,0.888,0.565,1.074,0.763,0.362,0.623,0.584,���쐼,1.2,��
2021/10/04,18:30,0.594,0.886,0.565,1.074,0.764,0.362,0.625,0.584,���쐼,1.7,��
2021/10/04,18:40,0.594,0.887,0.566,1.072,0.764,0.360,0.623,0.585,���쐼,3.8,��
2021/10/04,18:50,0.593,0.888,0.565,1.074,0.764,0.361,0.623,0.584,���쐼,2.9,��
2021/10/04,19:00,0.594,0.887,0.565,1.074,0.763,0.363,0.624,0.584,�쐼,2.3,��
2021/10/04,19:10,0.594,0.885,0.564,1.073,0.763,0.362,0.624,0.585,�쐼,2.0,��
2021/10/04,19:20,0.595,0.886,0.564,1.073,0.763,0.361,0.624,0.583,�쐼,2.3,��
2021/10/04,19:30,0.594,0.888,0.565,1.075,0.763,0.361,0.622,0.584,�쐼,3.6,��
2021/10/04,19:40,0.592,0.887,0.564,1.072,0.763,0.359,0.624,0.584,�쐼,2.8,��
2021/10/04,19:50,0.593,0.887,0.564,1.077,0.764,0.361,0.623,0.583,�쐼,3.3,��
2021/10/04,20:00,0.594,0.887,0.565,1.072,0.763,0.361,0.625,0.584,�쐼,2.8,��
2021/10/04,20:10,0.593,0.885,0.565,1.074,0.763,0.362,0.623,0.583,��쐼,2.9,��
2021/10/04,20:20,0.593,0.886,0.565,1.074,0.762,0.360,0.623,0.583,�쐼,3.2,��
2021/10/04,20:30,0.594,0.886,0.564,1.072,0.762,0.360,0.624,0.584,��쐼,3.4,��
2021/10/04,20:40,0.594,0.884,0.565,1.073,0.762,0.360,0.625,0.583,��쐼,3.0,��
2021/10/04,20:50,0.592,0.886,0.564,1.071,0.763,0.361,0.624,0.583,��쐼,3.7,��
2021/10/04,21:00,0.592,0.885,0.564,1.074,0.762,0.360,0.625,0.584,��쐼,4.5,��
2021/10/04,21:10,0.591,0.886,0.564,1.072,0.765,0.362,0.623,0.584,�쐼,3.8,��
2021/10/04,21:20,0.593,0.886,0.563,1.073,0.761,0.361,0.624,0.583,��쐼,3.1,��
2021/10/04,21:30,0.592,0.886,0.565,1.072,0.764,0.362,0.622,0.585,��쐼,3.1,��
2021/10/04,21:40,0.592,0.885,0.564,1.074,0.762,0.360,0.623,0.584,�쐼,3.1,��
2021/10/04,21:50,0.592,0.886,0.564,1.076,0.762,0.360,0.623,0.583,�쐼,3.2,��
2021/10/04,22:00,0.591,0.884,0.566,1.073,0.763,0.360,0.623,0.583,�쐼,3.5,��
2021/10/04,22:10,0.590,0.887,0.563,1.075,0.764,0.361,0.623,0.583,��쐼,3.5,��
2021/10/04,22:20,0.592,0.885,0.563,1.071,0.764,0.361,0.624,0.584,�쐼,1.5,��
2021/10/04,22:30,0.594,0.884,0.564,1.072,0.764,0.360,0.623,0.583,���쐼,1.5,��
2021/10/04,22:40,0.593,0.885,0.562,1.073,0.763,0.361,0.623,0.582,�쐼,1.4,��
2021/10/04,22:50,0.593,0.887,0.564,1.074,0.763,0.359,0.624,0.584,�쐼,1.4,��
2021/10/04,23:00,0.593,0.883,0.562,1.075,0.762,0.361,0.624,0.584,��,1.7,��
2021/10/04,23:10,0.592,0.885,0.563,1.074,0.762,0.361,0.624,0.583,�쐼,2.0,��
2021/10/04,23:20,0.591,0.885,0.564,1.073,0.762,0.361,0.624,0.584,�쐼,1.7,��
2021/10/04,23:30,0.592,0.885,0.563,1.074,0.764,0.362,0.623,0.585,��,1.2,��
2021/10/04,23:40,0.593,0.882,0.564,1.073,0.761,0.362,0.622,0.584,�k,2.3,��
2021/10/04,23:50,0.592,0.885,0.564,1.074,0.764,0.360,0.624,0.583,�k�k��,2.6,��
